OPTUS 10

Last updated on Oct. 23, 2020, 5:56 a.m. UTC

1 40146U 14054A   20296.85685782 -.00000162  00000-0  00000-0 0  9997
2 40146   0.0288 189.9229 0004197   9.3869 296.9295  1.00270913 22336
UTC
Height (km)
Latitude
Longitude
Inclination
Orbital Period
UTC large
Height (km)
Speed (km/s)
/
Latitude / Longitude
Inclination (degrees)
Orbital Period (minutes)
Azimuth
Elevation
Range (km)
Doppler Factor
iOS Compass Heading
iOS Angle

Next 30 passes for location: Hong Kong

Rise time Rise Azimuth (degrees) Set time Set Azimuth (degrees) Duration Max altitude (degrees)

No matching passes for this satellites